When you browse on this site, cookies collect data to enhance your experience and personalize the content and advertising you see.
Visit our Privacy Policy to learn more. By continuing to use the site, you agree to this use of cookies and data.
  • In United Kingdom
  • List of Countries
  • For 7 days
  • Water Temperature
  • Weather Map
  • Weather Widgets
  • user-avatar
    Login

    Hourly Weather Dagestanskiye Ogni

    Today, 21 August, Wednesday

    Time Temperature Precipitation Wind Pressure Humidity
    00:00 +25°C° 0 mm 2 mps 758 mmHg 50%
    01:00 +25°C° 0 mm 2 mps 758 mmHg 51%
    02:00 +25°C° 0 mm 1 mps 758 mmHg 51%
    03:00 +24°C° 0 mm 2 mps 758 mmHg 54%
    04:00 +25°C° 0 mm 1 mps 758 mmHg 53%
    05:00 +26°C° 0 mm 1 mps 758 mmHg 52%
    06:00 +26°C° 0 mm 1 mps 758 mmHg 51%
    07:00 +29°C° 0 mm 2 mps 758 mmHg 42%
    08:00 +31°C° 0 mm 2 mps 758 mmHg 34%
    09:00 +35°C° 0 mm 3 mps 758 mmHg 26%
    10:00 +36°C° 0 mm 3 mps 758 mmHg 25%
    11:00 +36°C° 0 mm 4 mps 758 mmHg 24%
    12:00 +37°C° 0 mm 5 mps 757 mmHg 23%
    13:00 +37°C° 0 mm 5 mps 757 mmHg 23%
    14:00 +37°C° 0 mm 5 mps 757 mmHg 23%
    15:00 +37°C° 0 mm 4 mps 756 mmHg 23%
    16:00 +36°C° 0 mm 4 mps 756 mmHg 28%
    17:00 +34°C° 0 mm 4 mps 756 mmHg 32%
    18:00 +33°C° 0 mm 3 mps 756 mmHg 36%
    19:00 +30°C° 0 mm 3 mps 756 mmHg 40%
    20:00 +28°C° 0 mm 2 mps 756 mmHg 44%
    21:00 +27°C° 0 mm 2 mps 756 mmHg 47%
    22:00 +27°C° 0 mm 2 mps 756 mmHg 47%
    23:00 +27°C° 0 mm 2 mps 756 mmHg 46%

    Tomorrow, 22 August, Thursday

    Time Temperature Precipitation Wind Pressure Humidity
    00:00 +27°C° 0 mm 2 mps 756 mmHg 45%
    01:00 +26°C° 0 mm 2 mps 756 mmHg 46%
    02:00 +26°C° 0 mm 2 mps 755 mmHg 47%
    03:00 +25°C° 0 mm 2 mps 755 mmHg 48%
    04:00 +26°C° 0 mm 1 mps 755 mmHg 48%
    05:00 +26°C° 0 mm 1 mps 755 mmHg 47%
    06:00 +27°C° 0 mm 1 mps 755 mmHg 46%
    07:00 +29°C° 0 mm 2 mps 755 mmHg 38%
    08:00 +32°C° 0 mm 2 mps 755 mmHg 30%
    09:00 +36°C° 0 mm 3 mps 755 mmHg 22%
    10:00 +37°C° 0 mm 3 mps 755 mmHg 21%
    11:00 +38°C° 0 mm 4 mps 755 mmHg 20%
    12:00 +39°C° 0 mm 5 mps 754 mmHg 20%
    13:00 +39°C° 0 mm 5 mps 754 mmHg 21%
    14:00 +39°C° 0 mm 5 mps 754 mmHg 21%
    15:00 +38°C° 0 mm 4 mps 754 mmHg 22%
    16:00 +36°C° 0 mm 4 mps 754 mmHg 26%
    17:00 +35°C° 0 mm 3 mps 754 mmHg 29%
    18:00 +32°C° 0 mm 2 mps 754 mmHg 33%
    19:00 +31°C° 0 mm 2 mps 754 mmHg 35%
    20:00 +29°C° 0 mm 2 mps 755 mmHg 38%
    21:00 +28°C° 0 mm 1 mps 755 mmHg 40%
    22:00 +27°C° 0 mm 1 mps 755 mmHg 40%
    23:00 +27°C° 0 mm 1 mps 755 mmHg 41%

    Day after tomorrow, 23 August, Friday

    Time Temperature Precipitation Wind Pressure Humidity
    00:00 +26°C° 0 mm 1 mps 755 mmHg 41%
    01:00 +26°C° 0 mm 1 mps 755 mmHg 41%
    02:00 +26°C° 0 mm 1 mps 755 mmHg 40%
    03:00 +26°C° 0 mm 1 mps 755 mmHg 40%
    04:00 +26°C° 0 mm 1 mps 755 mmHg 39%
    05:00 +27°C° 0 mm 1 mps 755 mmHg 38%
    06:00 +28°C° 0 mm 1 mps 755 mmHg 37%
    07:00 +31°C° 0 mm 1 mps 755 mmHg 32%
    08:00 +34°C° 0 mm 2 mps 755 mmHg 26%
    09:00 +37°C° 0 mm 2 mps 755 mmHg 20%
    10:00 +38°C° 0 mm 3 mps 755 mmHg 21%
    11:00 +38°C° 0 mm 4 mps 755 mmHg 21%
    12:00 +39°C° 0 mm 5 mps 755 mmHg 21%
    13:00 +38°C° 0 mm 4 mps 755 mmHg 22%
    14:00 +38°C° 0 mm 4 mps 754 mmHg 24%
    15:00 +37°C° 0 mm 4 mps 754 mmHg 25%
    16:00 +36°C° 0 mm 3 mps 754 mmHg 29%
    17:00 +35°C° 0 mm 2 mps 754 mmHg 33%
    18:00 +32°C° 0 mm 1 mps 754 mmHg 37%
    19:00 +31°C° 0 mm 1 mps 755 mmHg 39%
    20:00 +29°C° 0 mm 1 mps 755 mmHg 42%
    21:00 +28°C° 0 mm 1 mps 755 mmHg 45%
    22:00 +27°C° 0 mm 1 mps 755 mmHg 45%
    23:00 +27°C° 0 mm 2 mps 755 mmHg 45%

    24 August, Saturday

    Time Temperature Precipitation Wind Pressure Humidity
    00:00 +27°C° 0 mm 2 mps 755 mmHg 45%
    01:00 +27°C° 0 mm 2 mps 755 mmHg 43%
    02:00 +27°C° 0 mm 2 mps 755 mmHg 41%
    03:00 +27°C° 0 mm 1 mps 755 mmHg 39%
    04:00 +27°C° 0 mm 1 mps 755 mmHg 39%
    05:00 +28°C° 0 mm 1 mps 755 mmHg 38%
    06:00 +28°C° 0 mm 1 mps 755 mmHg 38%
    07:00 +30°C° 0 mm 1 mps 755 mmHg 34%
    08:00 +32°C° 0 mm 2 mps 755 mmHg 30%
    09:00 +35°C° 0 mm 2 mps 756 mmHg 26%
    10:00 +36°C° 0 mm 2 mps 755 mmHg 25%
    11:00 +37°C° 0 mm 3 mps 755 mmHg 25%
    12:00 +38°C° 0 mm 4 mps 755 mmHg 24%
    13:00 +37°C° 0 mm 4 mps 755 mmHg 28%
    14:00 +37°C° 0 mm 3 mps 755 mmHg 32%
    15:00 +36°C° 0 mm 3 mps 754 mmHg 36%
    16:00 +35°C° 0 mm 3 mps 755 mmHg 41%
    17:00 +34°C° 0 mm 2 mps 755 mmHg 46%
    18:00 +32°C° 0 mm 2 mps 755 mmHg 51%
    19:00 +30°C° 0 mm 1 mps 755 mmHg 54%
    20:00 +29°C° 0 mm 1 mps 756 mmHg 56%
    21:00 +27°C° 0 mm 1 mps 756 mmHg 59%
    22:00 +27°C° 0 mm 1 mps 756 mmHg 58%
    23:00 +27°C° 0 mm 2 mps 756 mmHg 58%

    25 August, Sunday

    Time Temperature Precipitation Wind Pressure Humidity
    00:00 +27°C° 0 mm 2 mps 756 mmHg 57%
    01:00 +27°C° 0 mm 2 mps 756 mmHg 55%
    02:00 +26°C° 0 mm 2 mps 756 mmHg 54%
    03:00 +26°C° 0 mm 2 mps 756 mmHg 53%
    04:00 +27°C° 0 mm 1 mps 756 mmHg 49%
    05:00 +28°C° 0 mm 1 mps 756 mmHg 46%
    06:00 +28°C° 0 mm 1 mps 756 mmHg 43%
    07:00 +30°C° 0 mm 1 mps 756 mmHg 39%
    08:00 +32°C° 0 mm 2 mps 756 mmHg 34%
    09:00 +35°C° 0 mm 2 mps 756 mmHg 30%
    10:00 +36°C° 0 mm 3 mps 756 mmHg 27%
    11:00 +37°C° 0 mm 4 mps 756 mmHg 24%
    12:00 +37°C° 0 mm 5 mps 756 mmHg 21%
    13:00 +37°C° 0 mm 5 mps 756 mmHg 21%
    14:00 +38°C° 0 mm 6 mps 755 mmHg 21%
    15:00 +38°C° 0 mm 6 mps 755 mmHg 20%
    16:00 +35°C° 0 mm 5 mps 755 mmHg 23%
    17:00 +34°C° 0 mm 4 mps 755 mmHg 25%
    18:00 +31°C° 0 mm 3 mps 755 mmHg 28%
    19:00 +30°C° 0 mm 3 mps 755 mmHg 30%
    20:00 +28°C° 0 mm 3 mps 755 mmHg 31%
    21:00 +26°C° 0 mm 2 mps 756 mmHg 33%
    22:00 +26°C° 0 mm 2 mps 756 mmHg 34%
    23:00 +25°C° 0 mm 2 mps 756 mmHg 35%

    26 August, Monday

    Time Temperature Precipitation Wind Pressure Humidity
    00:00 +25°C° 0 mm 2 mps 756 mmHg 36%
    01:00 +25°C° 0 mm 1 mps 756 mmHg 37%
    02:00 +25°C° 0 mm 1 mps 756 mmHg 38%
    03:00 +25°C° 0 mm 1 mps 755 mmHg 38%
    04:00 +25°C° 0 mm 1 mps 755 mmHg 38%
    05:00 +26°C° 0 mm 1 mps 756 mmHg 37%
    06:00 +26°C° 0 mm 1 mps 756 mmHg 36%
    07:00 +28°C° 0 mm 2 mps 756 mmHg 33%
    08:00 +30°C° 0 mm 3 mps 756 mmHg 30%
    09:00 +33°C° 0 mm 4 mps 756 mmHg 28%
    10:00 +33°C° 0 mm 5 mps 756 mmHg 30%
    11:00 +34°C° 0 mm 5 mps 756 mmHg 32%
    12:00 +34°C° 0 mm 5 mps 756 mmHg 35%
    13:00 +34°C° 0 mm 4 mps 756 mmHg 35%
    14:00 +34°C° 0 mm 4 mps 756 mmHg 35%
    15:00 +33°C° 0 mm 3 mps 756 mmHg 35%
    16:00 +31°C° 0 mm 2 mps 757 mmHg 37%
    17:00 +30°C° 0 mm 2 mps 757 mmHg 39%
    18:00 +29°C° 0 mm 1 mps 757 mmHg 42%
    19:00 +29°C° 0.1 mm 1 mps 757 mmHg 46%
    20:00 +28°C° 0.1 mm 1 mps 758 mmHg 49%
    21:00 +27°C° 0.1 mm 1 mps 758 mmHg 53%
    22:00 +26°C° 0 mm 2 mps 758 mmHg 54%
    23:00 +26°C° 0 mm 2 mps 758 mmHg 55%
    Show more